Flag for United Kingdom Weather past 2 weeks in Edinburgh, Scotland, United Kingdom

Now
45 °F

Mostly cloudy.


Feels Like: 34 °F
Forecast: N/A
Wind: 36 mph from Southwest

Location: Edinburgh Airport

Current Time: Feb 28, 2015 at 11:36:49 PM

Latest Report: Feb 28, 2015 at 11:20 PM


Visibility: N/A

Pressure: 28.77 "Hg

Humidity: 87%

Dew point: 41 °F

Location of EdinburghLocation

Historic Weather in Edinburgh — Graph

°F

Edinburgh temperature yesterday

Maximum temperature yesterday: 45 °F (at 1:20 PM)
Minimum temperature yesterday: 36 °F (at 12:20 AM)
Average temperature yesterday: 41 °F

Past Weeks' High & Low Weather Summary

 TemperatureHumidityPressure
High54 °F (Feb 18, 12:20 PM)100% (Feb 14, 9:20 AM)30.42 "Hg (Feb 14, 9:20 AM)
Low27 °F (Feb 22, 2:20 AM)53% (Feb 26, 12:50 PM)28.65 "Hg (Feb 23, 4:20 PM)
Average41 °F84%29.64 "Hg
* Reported Feb 13 10:20 PM — Feb 28 10:20 PM, Edinburgh, Weather by CustomWeather, © 2015

Note: Actual official high and low records may vary slightly from our data, if they occured in-between our weather recording intervals... More about our weather records

Advertising

Edinburgh weather history for previous 24 hours

 ConditionsComfort  
Time TempWeatherWind HumidityBarometerVisibility
10:20 PM
Sat, Feb 28
46 °FLight rain. Mostly cloudy.31 mph82%28.77 "HgN/A
9:50 PM48 °FPassing clouds.38 mph82%28.80 "HgN/A
9:20 PM48 °FPassing clouds.23 mph87%28.80 "HgN/A
8:50 PM48 °FLight rain. Partly cloudy.22 mph82%28.82 "HgN/A
8:20 PM48 °FPassing clouds.25 mph82%28.85 "HgN/A
7:50 PM46 °FPassing clouds.28 mph82%28.88 "HgN/A
7:20 PM46 °FLight rain. Passing clouds.25 mph82%28.94 "HgN/A
6:50 PM46 °FLight rain. Passing clouds.25 mph76%28.97 "HgN/A
6:20 PM45 °FPassing clouds.17 mph87%29.03 "HgN/A
5:50 PM45 °FLight rain. Passing clouds.13 mph81%29.09 "HgN/A
5:20 PM45 °FLight rain. Partly sunny.10 mph81%29.12 "Hg5 mi
4:50 PM45 °FLight rain. Broken clouds.14 mph81%29.15 "Hg6 mi
4:20 PM45 °FLight rain. Partly sunny.16 mph81%29.21 "Hg5 mi
3:50 PM46 °FScattered clouds.14 mph76%29.21 "HgN/A
3:20 PM46 °FScattered clouds.15 mph76%29.27 "HgN/A
2:50 PM46 °FPartly sunny.14 mph76%29.27 "HgN/A
2:20 PM46 °FScattered clouds.22 mph76%29.30 "HgN/A
1:50 PM48 °FBroken clouds.20 mph71%29.33 "HgN/A
1:20 PM48 °FBroken clouds.22 mph71%29.36 "HgN/A
12:50 PM48 °FScattered clouds.17 mph71%29.39 "HgN/A
12:20 PM48 °FPartly sunny.20 mph71%29.39 "HgN/A
11:50 AM46 °FPartly sunny.20 mph76%29.42 "HgN/A
11:20 AM46 °FPassing clouds.13 mph82%29.45 "HgN/A
10:50 AM46 °FScattered clouds.16 mph82%29.45 "HgN/A
10:20 AM46 °FPartly sunny.16 mph82%29.47 "HgN/A
9:50 AM46 °FBroken clouds.14 mph82%29.47 "HgN/A
9:20 AM45 °FLight rain. Partly sunny.10 mph87%29.50 "HgN/A
8:50 AM45 °FLight rain. Broken clouds.13 mph87%29.50 "Hg4 mi
8:20 AM45 °FPartly sunny.13 mph87%29.50 "HgN/A
7:50 AM45 °FPartly sunny.12 mph81%29.50 "HgN/A
7:20 AM45 °FPartly sunny.13 mph87%29.53 "HgN/A
6:50 AM45 °FPassing clouds.10 mph81%29.50 "HgN/A
6:20 AM45 °FPassing clouds.13 mph87%29.53 "HgN/A
5:50 AM45 °FPassing clouds.12 mph87%29.53 "HgN/A
5:20 AM45 °FMostly cloudy.15 mph87%29.53 "HgN/A
4:50 AM45 °FPartly cloudy.17 mph87%29.53 "HgN/A
4:20 AM45 °FMostly cloudy.13 mph87%29.53 "HgN/A
3:20 AM46 °FOvercast.13 mph82%29.53 "HgN/A
2:50 AM45 °FOvercast.13 mph87%29.53 "HgN/A
2:20 AM46 °FOvercast.16 mph82%29.53 "HgN/A
1:50 AM45 °FPassing clouds.18 mph87%29.56 "HgN/A
1:20 AM45 °FMostly cloudy.20 mph87%29.56 "HgN/A
12:50 AM45 °FLight rain. Partly cloudy.21 mph87%29.59 "HgN/A
12:20 AM45 °FLight rain. Passing clouds.21 mph87%29.59 "HgN/A
11:50 PM
Fri, Feb 27
45 °FLight rain. Partly cloudy.24 mph81%29.59 "HgN/A
11:20 PM43 °FPartly cloudy.18 mph87%29.62 "HgN/A
Weather by CustomWeather, © 2015

See weather overviewHow to use our weather pages